Time,TemperatureF,DewpointF,PressureIn,WindDirection,WindDirectionDegrees,WindSpeedMPH,WindSpeedGustMPH,Humidity,HourlyPrecipIn,Conditions,Clouds,dailyrainin,SoftwareType,DateUTC
2013-02-23 00:00:00,43.0,40.0,29.98,North,360,4.0,7.0,91,0.00,,,0.00,Rainwise IP-100,2013-02-23 06:00:00,
2013-02-23 00:05:00,43.0,40.0,29.98,NNW,337,7.0,10.0,90,0.00,,,0.00,Rainwise IP-100,2013-02-23 06:05:00,
2013-02-23 00:10:00,43.0,40.0,29.97,North,360,7.0,12.0,89,0.00,,,0.00,Rainwise IP-100,2013-02-23 06:10:00,
2013-02-23 00:15:00,43.0,40.0,29.97,NNW,337,6.0,11.0,88,0.00,,,0.00,Rainwise IP-100,2013-02-23 06:15:00,
2013-02-23 00:20:00,42.0,39.0,29.97,NNW,337,1.0,9.0,88,0.00,,,0.00,Rainwise IP-100,2013-02-23 06:20:00,
2013-02-23 00:25:00,42.0,39.0,29.97,North,360,0.0,4.0,88,0.00,,,0.00,Rainwise IP-100,2013-02-23 06:25:00,
2013-02-23 00:30:00,42.0,39.0,29.98,NW,315,5.0,7.0,88,0.00,,,0.00,Rainwise IP-100,2013-02-23 06:30:00,
2013-02-23 00:35:00,42.0,38.0,29.98,NNW,337,0.0,6.0,87,0.00,,,0.00,Rainwise IP-100,2013-02-23 06:35:00,
2013-02-23 00:40:00,42.0,38.0,29.98,North,360,1.0,5.0,87,0.00,,,0.00,Rainwise IP-100,2013-02-23 06:40:00,
2013-02-23 00:45:00,42.0,39.0,29.98,North,360,0.0,2.0,88,0.00,,,0.00,Rainwise IP-100,2013-02-23 06:45:00,
2013-02-23 00:50:00,42.0,39.0,29.99,NE,45,1.0,6.0,88,0.00,,,0.00,Rainwise IP-100,2013-02-23 06:50:00,
2013-02-23 00:55:00,42.0,39.0,29.99,NE,45,2.0,5.0,88,0.00,,,0.00,Rainwise IP-100,2013-02-23 06:55:00,
2013-02-23 01:00:00,41.0,38.0,29.98,North,360,1.0,4.0,89,0.00,,,0.00,Rainwise IP-100,2013-02-23 07:00:00,
2013-02-23 01:05:00,41.0,38.0,29.98,NNW,337,5.0,7.0,89,0.00,,,0.00,Rainwise IP-100,2013-02-23 07:05:00,
2013-02-23 01:10:00,41.0,38.0,29.99,NNW,337,2.0,5.0,89,0.00,,,0.00,Rainwise IP-100,2013-02-23 07:10:00,
2013-02-23 01:15:00,41.0,38.0,29.99,North,360,1.0,5.0,89,0.00,,,0.00,Rainwise IP-100,2013-02-23 07:15:00,
2013-02-23 01:20:00,41.0,38.0,30.00,North,360,3.0,6.0,89,0.00,,,0.00,Rainwise IP-100,2013-02-23 07:20:00,
2013-02-23 01:25:00,41.0,38.0,30.00,NW,315,2.0,6.0,89,0.00,,,0.00,Rainwise IP-100,2013-02-23 07:25:00,
2013-02-23 01:30:00,41.0,38.0,29.99,NW,315,0.0,3.0,90,0.00,,,0.00,Rainwise IP-100,2013-02-23 07:30:00,
2013-02-23 01:35:00,41.0,38.0,29.99,NNW,337,2.0,5.0,90,0.00,,,0.00,Rainwise IP-100,2013-02-23 07:35:00,
2013-02-23 01:40:00,41.0,39.0,29.99,NNW,337,2.0,3.0,91,0.00,,,0.00,Rainwise IP-100,2013-02-23 07:40:00,
2013-02-23 01:45:00,41.0,38.0,29.99,North,360,2.0,6.0,90,0.00,,,0.00,Rainwise IP-100,2013-02-23 07:45:00,
2013-02-23 01:50:00,41.0,38.0,29.99,NW,315,7.0,7.0,90,0.00,,,0.00,Rainwise IP-100,2013-02-23 07:50:00,
2013-02-23 01:55:00,40.0,37.0,29.99,NNW,337,7.0,9.0,86,0.00,,,0.00,Rainwise IP-100,2013-02-23 07:55:00,
2013-02-23 02:00:00,40.0,36.0,29.98,NNW,337,5.0,9.0,85,0.00,,,0.00,Rainwise IP-100,2013-02-23 08:00:00,
2013-02-23 02:05:00,40.0,36.0,29.98,NNW,337,7.0,7.0,84,0.00,,,0.00,Rainwise IP-100,2013-02-23 08:05:00,
2013-02-23 02:10:00,40.0,36.0,29.98,WNW,292,5.0,9.0,84,0.00,,,0.00,Rainwise IP-100,2013-02-23 08:10:00,
2013-02-23 02:13:00,40.0,36.0,29.98,NNW,337,5.0,9.0,83,0.00,,,0.00,Rainwise IP-100,2013-02-23 08:13:00,
2013-02-23 02:18:00,40.0,36.0,29.98,North,360,6.0,9.0,83,0.00,,,0.00,Rainwise IP-100,2013-02-23 08:18:00,
2013-02-23 02:23:00,39.0,35.0,29.98,NW,315,0.0,10.0,83,0.00,,,0.00,Rainwise IP-100,2013-02-23 08:23:00,
2013-02-23 02:28:00,39.0,35.0,29.99,NW,315,4.0,4.0,83,0.00,,,0.00,Rainwise IP-100,2013-02-23 08:28:00,
2013-02-23 02:33:00,39.0,35.0,29.99,North,360,3.0,7.0,84,0.00,,,0.00,Rainwise IP-100,2013-02-23 08:33:00,
2013-02-23 02:38:00,39.0,35.0,29.98,NNW,337,4.0,7.0,83,0.00,,,0.00,Rainwise IP-100,2013-02-23 08:38:00,
2013-02-23 02:43:00,39.0,35.0,29.98,NW,315,2.0,6.0,84,0.00,,,0.00,Rainwise IP-100,2013-02-23 08:43:00,
2013-02-23 02:48:00,39.0,35.0,29.97,NNW,337,6.0,7.0,84,0.00,,,0.00,Rainwise IP-100,2013-02-23 08:48:00,
2013-02-23 02:53:00,39.0,35.0,29.97,NW,315,6.0,7.0,84,0.00,,,0.00,Rainwise IP-100,2013-02-23 08:53:00,
2013-02-23 02:58:00,39.0,35.0,29.97,NNW,337,5.0,8.0,85,0.00,,,0.00,Rainwise IP-100,2013-02-23 08:58:00,
2013-02-23 03:02:00,39.0,35.0,29.97,NW,315,5.0,7.0,85,0.00,,,0.00,Rainwise IP-100,2013-02-23 09:02:00,
2013-02-23 03:07:00,38.0,35.0,29.97,NNW,337,6.0,6.0,86,0.00,,,0.00,Rainwise IP-100,2013-02-23 09:07:00,
2013-02-23 03:12:00,39.0,36.0,29.97,NW,315,0.0,7.0,86,0.00,,,0.00,Rainwise IP-100,2013-02-23 09:12:00,
2013-02-23 03:17:00,38.0,35.0,29.97,North,360,6.0,7.0,86,0.00,,,0.00,Rainwise IP-100,2013-02-23 09:17:00,
2013-02-23 03:22:00,38.0,35.0,29.95,NNW,337,0.0,6.0,86,0.00,,,0.00,Rainwise IP-100,2013-02-23 09:22:00,
2013-02-23 03:27:00,38.0,35.0,29.95,NNW,337,0.0,1.0,87,0.00,,,0.00,Rainwise IP-100,2013-02-23 09:27:00,
2013-02-23 03:32:00,38.0,35.0,29.96,NNW,337,1.0,3.0,89,0.00,,,0.00,Rainwise IP-100,2013-02-23 09:32:00,
2013-02-23 03:37:00,38.0,36.0,29.96,NNW,337,2.0,5.0,91,0.00,,,0.00,Rainwise IP-100,2013-02-23 09:37:00,
2013-02-23 03:42:00,38.0,36.0,29.96,NNW,337,5.0,8.0,90,0.00,,,0.00,Rainwise IP-100,2013-02-23 09:42:00,
2013-02-23 03:47:00,38.0,36.0,29.96,NNW,337,5.0,8.0,90,0.00,,,0.00,Rainwise IP-100,2013-02-23 09:47:00,
2013-02-23 03:52:00,37.0,35.0,29.96,NW,315,2.0,6.0,90,0.00,,,0.00,Rainwise IP-100,2013-02-23 09:52:00,
2013-02-23 03:57:00,37.0,35.0,29.96,NW,315,4.0,6.0,91,0.00,,,0.00,Rainwise IP-100,2013-02-23 09:57:00,
2013-02-23 04:02:00,37.0,35.0,29.96,NW,315,2.0,6.0,90,0.00,,,0.00,Rainwise IP-100,2013-02-23 10:02:00,
2013-02-23 04:07:00,37.0,35.0,29.96,NNW,337,3.0,6.0,92,0.00,,,0.00,Rainwise IP-100,2013-02-23 10:07:00,
2013-02-23 04:12:00,37.0,35.0,29.97,NW,315,2.0,6.0,92,0.00,,,0.00,Rainwise IP-100,2013-02-23 10:12:00,
2013-02-23 04:17:00,37.0,35.0,29.97,NW,315,4.0,6.0,92,0.00,,,0.00,Rainwise IP-100,2013-02-23 10:17:00,
2013-02-23 04:22:00,37.0,35.0,29.96,NW,315,4.0,5.0,92,0.00,,,0.00,Rainwise IP-100,2013-02-23 10:22:00,
2013-02-23 04:27:00,37.0,35.0,29.96,NW,315,3.0,6.0,93,0.00,,,0.00,Rainwise IP-100,2013-02-23 10:27:00,
2013-02-23 04:32:00,37.0,36.0,29.96,NW,315,3.0,6.0,94,0.00,,,0.00,Rainwise IP-100,2013-02-23 10:32:00,
2013-02-23 04:37:00,36.0,35.0,29.96,NNW,337,3.0,7.0,93,0.00,,,0.00,Rainwise IP-100,2013-02-23 10:37:00,
2013-02-23 04:42:00,37.0,35.0,29.96,NW,315,6.0,7.0,93,0.00,,,0.00,Rainwise IP-100,2013-02-23 10:42:00,
2013-02-23 04:47:00,37.0,35.0,29.96,NW,315,4.0,10.0,93,0.00,,,0.00,Rainwise IP-100,2013-02-23 10:47:00,
2013-02-23 04:52:00,37.0,35.0,29.97,NNW,337,5.0,8.0,93,0.00,,,0.00,Rainwise IP-100,2013-02-23 10:52:00,
2013-02-23 04:57:00,37.0,35.0,29.97,NW,315,4.0,7.0,93,0.00,,,0.00,Rainwise IP-100,2013-02-23 10:57:00,
2013-02-23 05:02:00,37.0,35.0,29.97,NW,315,3.0,6.0,93,0.00,,,0.00,Rainwise IP-100,2013-02-23 11:02:00,
2013-02-23 05:07:00,36.0,35.0,29.97,NW,315,7.0,7.0,94,0.00,,,0.00,Rainwise IP-100,2013-02-23 11:07:00,
2013-02-23 05:12:00,36.0,35.0,29.97,NW,315,6.0,9.0,94,0.00,,,0.00,Rainwise IP-100,2013-02-23 11:12:00,
2013-02-23 05:17:00,36.0,35.0,29.97,NW,315,5.0,9.0,93,0.00,,,0.00,Rainwise IP-100,2013-02-23 11:17:00,
2013-02-23 05:22:00,36.0,35.0,29.97,NW,315,7.0,9.0,94,0.00,,,0.00,Rainwise IP-100,2013-02-23 11:22:00,
2013-02-23 05:27:00,36.0,35.0,29.97,NNW,337,7.0,9.0,94,0.00,,,0.00,Rainwise IP-100,2013-02-23 11:27:00,
2013-02-23 05:32:00,36.0,35.0,29.97,NNE,22,3.0,8.0,95,0.00,,,0.00,Rainwise IP-100,2013-02-23 11:32:00,
2013-02-23 05:37:00,36.0,35.0,29.97,North,360,5.0,10.0,95,0.00,,,0.00,Rainwise IP-100,2013-02-23 11:37:00,
2013-02-23 05:42:00,36.0,35.0,29.97,NW,315,3.0,9.0,95,0.00,,,0.00,Rainwise IP-100,2013-02-23 11:42:00,
2013-02-23 05:47:00,36.0,35.0,29.97,NNW,337,6.0,10.0,95,0.00,,,0.00,Rainwise IP-100,2013-02-23 11:47:00,
2013-02-23 05:52:00,36.0,35.0,29.97,NNW,337,4.0,9.0,95,0.00,,,0.00,Rainwise IP-100,2013-02-23 11:52:00,
2013-02-23 05:57:00,35.0,33.0,29.97,NW,315,5.0,8.0,95,0.00,,,0.00,Rainwise IP-100,2013-02-23 11:57:00,
2013-02-23 06:02:00,35.0,33.0,29.97,NW,315,5.0,8.0,95,0.00,,,0.00,Rainwise IP-100,2013-02-23 12:02:00,
2013-02-23 06:07:00,35.0,33.0,29.97,NW,315,7.0,10.0,95,0.00,,,0.00,Rainwise IP-100,2013-02-23 12:07:00,
2013-02-23 06:12:00,35.0,33.0,29.97,NNW,337,2.0,7.0,95,0.00,,,0.00,Rainwise IP-100,2013-02-23 12:12:00,
2013-02-23 06:17:00,35.0,33.0,29.97,NNW,337,6.0,6.0,95,0.00,,,0.00,Rainwise IP-100,2013-02-23 12:17:00,
2013-02-23 06:22:00,35.0,33.0,29.97,NNW,337,3.0,6.0,95,0.00,,,0.00,Rainwise IP-100,2013-02-23 12:22:00,
2013-02-23 06:27:00,35.0,33.0,29.97,NW,315,4.0,8.0,95,0.00,,,0.00,Rainwise IP-100,2013-02-23 12:27:00,
2013-02-23 06:32:00,35.0,33.0,29.97,North,360,7.0,9.0,95,0.00,,,0.00,Rainwise IP-100,2013-02-23 12:32:00,
2013-02-23 06:37:00,36.0,35.0,29.97,North,360,12.0,12.0,95,0.00,,,0.00,Rainwise IP-100,2013-02-23 12:37:00,
2013-02-23 06:42:00,36.0,35.0,29.96,NNW,337,8.0,12.0,95,0.00,,,0.00,Rainwise IP-100,2013-02-23 12:42:00,
2013-02-23 06:47:00,36.0,35.0,29.96,NNW,337,6.0,10.0,95,0.00,,,0.00,Rainwise IP-100,2013-02-23 12:47:00,
2013-02-23 06:52:00,36.0,35.0,29.96,NW,315,6.0,12.0,95,0.00,,,0.00,Rainwise IP-100,2013-02-23 12:52:00,
2013-02-23 06:57:00,36.0,35.0,29.96,NNE,22,6.0,9.0,95,0.00,,,0.00,Rainwise IP-100,2013-02-23 12:57:00,
2013-02-23 07:02:00,36.0,35.0,29.97,North,360,4.0,9.0,95,0.00,,,0.00,Rainwise IP-100,2013-02-23 13:02:00,
2013-02-23 07:07:00,36.0,35.0,29.97,NW,315,9.0,10.0,95,0.00,,,0.00,Rainwise IP-100,2013-02-23 13:07:00,
2013-02-23 07:12:00,36.0,35.0,29.97,North,360,6.0,11.0,95,0.00,,,0.00,Rainwise IP-100,2013-02-23 13:12:00,
2013-02-23 07:17:00,36.0,35.0,29.97,North,360,6.0,9.0,95,0.00,,,0.00,Rainwise IP-100,2013-02-23 13:17:00,
2013-02-23 07:22:00,36.0,35.0,29.97,North,360,7.0,9.0,95,0.00,,,0.00,Rainwise IP-100,2013-02-23 13:22:00,
2013-02-23 07:27:00,36.0,35.0,29.97,North,360,1.0,8.0,95,0.00,,,0.00,Rainwise IP-100,2013-02-23 13:27:00,
2013-02-23 07:32:00,36.0,35.0,29.97,NW,315,6.0,10.0,94,0.00,,,0.00,Rainwise IP-100,2013-02-23 13:32:00,
2013-02-23 07:37:00,36.0,35.0,29.97,NNW,337,5.0,9.0,95,0.00,,,0.00,Rainwise IP-100,2013-02-23 13:37:00,
2013-02-23 07:42:00,37.0,36.0,29.97,NW,315,8.0,8.0,95,0.00,,,0.00,Rainwise IP-100,2013-02-23 13:42:00,
2013-02-23 07:47:00,37.0,36.0,29.97,NNW,337,6.0,9.0,94,0.00,,,0.00,Rainwise IP-100,2013-02-23 13:47:00,
2013-02-23 07:52:00,37.0,36.0,29.98,NNW,337,6.0,9.0,94,0.00,,,0.00,Rainwise IP-100,2013-02-23 13:52:00,
2013-02-23 07:57:00,37.0,36.0,29.98,North,360,5.0,7.0,94,0.00,,,0.00,Rainwise IP-100,2013-02-23 13:57:00,
2013-02-23 08:02:00,37.0,35.0,29.98,NW,315,6.0,7.0,93,0.00,,,0.00,Rainwise IP-100,2013-02-23 14:02:00,
2013-02-23 08:07:00,37.0,35.0,29.98,NNE,22,7.0,10.0,92,0.00,,,0.00,Rainwise IP-100,2013-02-23 14:07:00,
2013-02-23 08:12:00,37.0,35.0,29.98,NE,45,7.0,9.0,92,0.00,,,0.00,Rainwise IP-100,2013-02-23 14:12:00,
2013-02-23 08:17:00,37.0,35.0,29.98,NNE,22,7.0,10.0,91,0.00,,,0.00,Rainwise IP-100,2013-02-23 14:17:00,
2013-02-23 08:22:00,37.0,35.0,29.97,NNE,22,9.0,11.0,90,0.00,,,0.00,Rainwise IP-100,2013-02-23 14:22:00,
2013-02-23 08:27:00,38.0,36.0,29.97,NE,45,8.0,10.0,90,0.00,,,0.00,Rainwise IP-100,2013-02-23 14:27:00,
2013-02-23 08:32:00,38.0,35.0,29.97,North,360,5.0,10.0,88,0.00,,,0.00,Rainwise IP-100,2013-02-23 14:32:00,
2013-02-23 08:37:00,38.0,35.0,29.97,NNW,337,7.0,7.0,88,0.00,,,0.00,Rainwise IP-100,2013-02-23 14:37:00,
2013-02-23 08:42:00,39.0,36.0,29.97,NW,315,5.0,7.0,87,0.00,,,0.00,Rainwise IP-100,2013-02-23 14:42:00,
2013-02-23 08:47:00,39.0,35.0,29.97,NNW,337,8.0,8.0,85,0.00,,,0.00,Rainwise IP-100,2013-02-23 14:47:00,
2013-02-23 08:52:00,39.0,36.0,29.97,North,360,5.0,9.0,86,0.00,,,0.00,Rainwise IP-100,2013-02-23 14:52:00,
2013-02-23 08:57:00,39.0,36.0,29.97,NNE,22,1.0,6.0,86,0.00,,,0.00,Rainwise IP-100,2013-02-23 14:57:00,
2013-02-23 09:02:00,39.0,35.0,29.96,East,90,6.0,9.0,85,0.00,,,0.00,Rainwise IP-100,2013-02-23 15:02:00,
2013-02-23 09:07:00,40.0,36.0,29.96,NNE,22,7.0,7.0,85,0.00,,,0.00,Rainwise IP-100,2013-02-23 15:07:00,
2013-02-23 09:12:00,39.0,35.0,29.95,NNE,22,6.0,10.0,84,0.00,,,0.00,Rainwise IP-100,2013-02-23 15:12:00,
2013-02-23 09:17:00,39.0,36.0,29.95,North,360,6.0,9.0,86,0.00,,,0.00,Rainwise IP-100,2013-02-23 15:17:00,
2013-02-23 09:22:00,40.0,36.0,29.95,NNE,22,1.0,7.0,84,0.00,,,0.00,Rainwise IP-100,2013-02-23 15:22:00,
2013-02-23 09:27:00,40.0,35.0,29.95,North,360,7.0,11.0,81,0.00,,,0.00,Rainwise IP-100,2013-02-23 15:27:00,
2013-02-23 09:32:00,40.0,36.0,29.95,NNE,22,2.0,10.0,82,0.00,,,0.00,Rainwise IP-100,2013-02-23 15:32:00,
2013-02-23 09:37:00,40.0,35.0,29.95,North,360,0.0,4.0,81,0.00,,,0.00,Rainwise IP-100,2013-02-23 15:37:00,
2013-02-23 09:42:00,42.0,36.0,29.95,NW,315,4.0,7.0,78,0.00,,,0.00,Rainwise IP-100,2013-02-23 15:42:00,
2013-02-23 09:47:00,43.0,36.0,29.95,NE,45,6.0,10.0,75,0.00,,,0.00,Rainwise IP-100,2013-02-23 15:47:00,
2013-02-23 09:50:00,43.0,36.0,29.94,NNW,337,6.0,9.0,76,0.00,,,0.00,Rainwise IP-100,2013-02-23 15:50:00,
2013-02-23 09:55:00,42.0,36.0,29.94,WNW,292,6.0,9.0,78,0.00,,,0.00,Rainwise IP-100,2013-02-23 15:55:00,
2013-02-23 10:00:00,44.0,36.0,29.94,North,360,2.0,7.0,74,0.00,,,0.00,Rainwise IP-100,2013-02-23 16:00:00,
2013-02-23 10:05:00,44.0,36.0,29.94,NNW,337,7.0,9.0,71,0.00,,,0.00,Rainwise IP-100,2013-02-23 16:05:00,
2013-02-23 10:10:00,44.0,36.0,29.94,NW,315,0.0,7.0,72,0.00,,,0.00,Rainwise IP-100,2013-02-23 16:10:00,
2013-02-23 10:15:00,44.0,35.0,29.94,NNE,22,6.0,8.0,70,0.00,,,0.00,Rainwise IP-100,2013-02-23 16:15:00,
2013-02-23 10:20:00,44.0,36.0,29.95,NE,45,6.0,12.0,71,0.00,,,0.00,Rainwise IP-100,2013-02-23 16:20:00,
2013-02-23 10:25:00,43.0,36.0,29.95,NNE,22,6.0,10.0,74,0.00,,,0.00,Rainwise IP-100,2013-02-23 16:25:00,
2013-02-23 10:30:00,43.0,35.0,29.95,NE,45,6.0,10.0,73,0.00,,,0.00,Rainwise IP-100,2013-02-23 16:30:00,
2013-02-23 10:35:00,43.0,35.0,29.95,NE,45,4.0,6.0,73,0.00,,,0.00,Rainwise IP-100,2013-02-23 16:35:00,
2013-02-23 10:40:00,46.0,36.0,29.94,NNW,337,3.0,8.0,68,0.00,,,0.00,Rainwise IP-100,2013-02-23 16:40:00,
2013-02-23 10:45:00,46.0,35.0,29.94,North,360,1.0,9.0,65,0.00,,,0.00,Rainwise IP-100,2013-02-23 16:45:00,
2013-02-23 10:50:00,46.0,36.0,29.93,NNW,337,6.0,8.0,67,0.00,,,0.00,Rainwise IP-100,2013-02-23 16:50:00,
2013-02-23 10:55:00,47.0,35.0,29.93,NNE,22,5.0,8.0,64,0.00,,,0.00,Rainwise IP-100,2013-02-23 16:55:00,
2013-02-23 11:00:00,46.0,36.0,29.95,SSE,157,3.0,7.0,68,0.00,,,0.00,Rainwise IP-100,2013-02-23 17:00:00,
2013-02-23 11:05:00,47.0,35.0,29.95,North,360,6.0,10.0,62,0.00,,,0.00,Rainwise IP-100,2013-02-23 17:05:00,
2013-02-23 11:10:00,48.0,36.0,29.93,NE,45,6.0,11.0,61,0.00,,,0.00,Rainwise IP-100,2013-02-23 17:10:00,
2013-02-23 11:15:00,48.0,36.0,29.93,North,360,1.0,9.0,62,0.00,,,0.00,Rainwise IP-100,2013-02-23 17:15:00,
2013-02-23 11:20:00,48.0,36.0,29.93,WNW,292,5.0,9.0,61,0.00,,,0.00,Rainwise IP-100,2013-02-23 17:20:00,
2013-02-23 11:25:00,48.0,35.0,29.93,WNW,292,1.0,8.0,60,0.00,,,0.00,Rainwise IP-100,2013-02-23 17:25:00,
2013-02-23 11:30:00,48.0,35.0,29.93,NE,45,5.0,6.0,60,0.00,,,0.00,Rainwise IP-100,2013-02-23 17:30:00,
2013-02-23 11:35:00,49.0,35.0,29.93,North,360,5.0,9.0,58,0.00,,,0.00,Rainwise IP-100,2013-02-23 17:35:00,
2013-02-23 11:40:00,50.0,36.0,29.93,NNE,22,6.0,8.0,58,0.00,,,0.00,Rainwise IP-100,2013-02-23 17:40:00,
2013-02-23 11:45:00,49.0,35.0,29.93,South,180,5.0,7.0,58,0.00,,,0.00,Rainwise IP-100,2013-02-23 17:45:00,
2013-02-23 11:50:00,49.0,36.0,29.93,NE,45,3.0,7.0,60,0.00,,,0.00,Rainwise IP-100,2013-02-23 17:50:00,
2013-02-23 11:55:00,50.0,36.0,29.93,NW,315,6.0,10.0,58,0.00,,,0.00,Rainwise IP-100,2013-02-23 17:55:00,
2013-02-23 12:00:00,50.0,36.0,29.93,NW,315,1.0,10.0,59,0.00,,,0.00,Rainwise IP-100,2013-02-23 18:00:00,
2013-02-23 12:05:00,51.0,36.0,29.93,NW,315,7.0,9.0,54,0.00,,,0.00,Rainwise IP-100,2013-02-23 18:05:00,
2013-02-23 12:10:00,50.0,35.0,29.91,NE,45,6.0,10.0,56,0.00,,,0.00,Rainwise IP-100,2013-02-23 18:10:00,
2013-02-23 12:15:00,51.0,36.0,29.91,North,360,6.0,9.0,56,0.00,,,0.00,Rainwise IP-100,2013-02-23 18:15:00,
2013-02-23 12:20:00,51.0,36.0,29.91,NNW,337,8.0,9.0,55,0.00,,,0.00,Rainwise IP-100,2013-02-23 18:20:00,
2013-02-23 12:25:00,51.0,36.0,29.91,WNW,292,6.0,10.0,56,0.00,,,0.00,Rainwise IP-100,2013-02-23 18:25:00,
2013-02-23 12:30:00,51.0,36.0,29.90,NNE,22,7.0,10.0,56,0.00,,,0.00,Rainwise IP-100,2013-02-23 18:30:00,
2013-02-23 12:35:00,50.0,35.0,29.90,NW,315,5.0,13.0,56,0.00,,,0.00,Rainwise IP-100,2013-02-23 18:35:00,
2013-02-23 12:40:00,49.0,35.0,29.90,WNW,292,6.0,10.0,57,0.00,,,0.00,Rainwise IP-100,2013-02-23 18:40:00,
2013-02-23 12:45:00,50.0,35.0,29.90,NNW,337,5.0,10.0,56,0.00,,,0.00,Rainwise IP-100,2013-02-23 18:45:00,
2013-02-23 12:50:00,50.0,35.0,29.89,NNE,22,2.0,9.0,56,0.00,,,0.00,Rainwise IP-100,2013-02-23 18:50:00,
2013-02-23 12:55:00,51.0,35.0,29.89,NNW,337,9.0,9.0,53,0.00,,,0.00,Rainwise IP-100,2013-02-23 18:55:00,
2013-02-23 13:00:00,51.0,35.0,29.89,NW,315,6.0,10.0,53,0.00,,,0.00,Rainwise IP-100,2013-02-23 19:00:00,
2013-02-23 13:05:00,51.0,35.0,29.89,NNE,22,6.0,10.0,53,0.00,,,0.00,Rainwise IP-100,2013-02-23 19:05:00,
2013-02-23 13:10:00,50.0,33.0,29.89,NNE,22,5.0,12.0,54,0.00,,,0.00,Rainwise IP-100,2013-02-23 19:10:00,
2013-02-23 13:15:00,50.0,33.0,29.89,WNW,292,6.0,9.0,53,0.00,,,0.00,Rainwise IP-100,2013-02-23 19:15:00,
2013-02-23 13:20:00,50.0,33.0,29.89,North,360,9.0,9.0,53,0.00,,,0.00,Rainwise IP-100,2013-02-23 19:20:00,
2013-02-23 13:25:00,51.0,35.0,29.89,NE,45,5.0,10.0,52,0.00,,,0.00,Rainwise IP-100,2013-02-23 19:25:00,
2013-02-23 13:30:00,51.0,35.0,29.89,WSW,247,6.0,9.0,52,0.00,,,0.00,Rainwise IP-100,2013-02-23 19:30:00,
2013-02-23 13:35:00,51.0,33.0,29.89,WSW,247,2.0,9.0,51,0.00,,,0.00,Rainwise IP-100,2013-02-23 19:35:00,
2013-02-23 13:40:00,53.0,35.0,29.87,West,270,4.0,4.0,49,0.00,,,0.00,Rainwise IP-100,2013-02-23 19:40:00,
2013-02-23 13:45:00,53.0,35.0,29.87,NNW,337,7.0,8.0,49,0.00,,,0.00,Rainwise IP-100,2013-02-23 19:45:00,
2013-02-23 13:50:00,53.0,33.0,29.87,NNE,22,9.0,9.0,48,0.00,,,0.00,Rainwise IP-100,2013-02-23 19:50:00,
2013-02-23 13:55:00,51.0,33.0,29.87,NE,45,2.0,10.0,51,0.00,,,0.00,Rainwise IP-100,2013-02-23 19:55:00,
2013-02-23 14:00:00,51.0,35.0,29.89,East,90,2.0,9.0,53,0.00,,,0.00,Rainwise IP-100,2013-02-23 20:00:00,
2013-02-23 14:05:00,52.0,35.0,29.89,East,90,5.0,6.0,52,0.00,,,0.00,Rainwise IP-100,2013-02-23 20:05:00,
2013-02-23 14:10:00,52.0,36.0,29.89,SW,225,0.0,9.0,53,0.00,,,0.00,Rainwise IP-100,2013-02-23 20:10:00,
2013-02-23 14:15:00,51.0,33.0,29.89,NE,45,6.0,8.0,51,0.00,,,0.00,Rainwise IP-100,2013-02-23 20:15:00,
2013-02-23 14:20:00,51.0,35.0,29.89,East,90,0.0,7.0,52,0.00,,,0.00,Rainwise IP-100,2013-02-23 20:20:00,
2013-02-23 14:25:00,51.0,35.0,29.89,NE,45,8.0,8.0,53,0.00,,,0.00,Rainwise IP-100,2013-02-23 20:25:00,
2013-02-23 14:30:00,51.0,35.0,29.88,South,180,1.0,10.0,53,0.00,,,0.00,Rainwise IP-100,2013-02-23 20:30:00,
2013-02-23 14:35:00,51.0,33.0,29.88,NE,45,7.0,9.0,51,0.00,,,0.00,Rainwise IP-100,2013-02-23 20:35:00,
2013-02-23 14:40:00,51.0,35.0,29.88,NE,45,6.0,8.0,52,0.00,,,0.00,Rainwise IP-100,2013-02-23 20:40:00,
2013-02-23 14:45:00,51.0,35.0,29.88,NNE,22,6.0,8.0,52,0.00,,,0.00,Rainwise IP-100,2013-02-23 20:45:00,
2013-02-23 14:50:00,52.0,35.0,29.88,North,360,6.0,7.0,50,0.00,,,0.00,Rainwise IP-100,2013-02-23 20:50:00,
2013-02-23 14:55:00,52.0,33.0,29.88,NE,45,2.0,7.0,49,0.00,,,0.00,Rainwise IP-100,2013-02-23 20:55:00,
2013-02-23 15:00:00,53.0,35.0,29.87,East,90,0.0,4.0,50,0.00,,,0.00,Rainwise IP-100,2013-02-23 21:00:00,
2013-02-23 15:05:00,54.0,35.0,29.87,South,180,3.0,4.0,48,0.00,,,0.00,Rainwise IP-100,2013-02-23 21:05:00,
2013-02-23 15:10:00,54.0,35.0,29.87,West,270,2.0,3.0,47,0.00,,,0.00,Rainwise IP-100,2013-02-23 21:10:00,
2013-02-23 15:15:00,53.0,32.0,29.87,West,270,3.0,6.0,46,0.00,,,0.00,Rainwise IP-100,2013-02-23 21:15:00,
2013-02-23 15:20:00,53.0,35.0,29.87,NNW,337,0.0,5.0,49,0.00,,,0.00,Rainwise IP-100,2013-02-23 21:20:00,
2013-02-23 15:25:00,54.0,33.0,29.87,West,270,3.0,4.0,46,0.00,,,0.00,Rainwise IP-100,2013-02-23 21:25:00,
2013-02-23 15:30:00,53.0,32.0,29.87,West,270,1.0,8.0,45,0.00,,,0.00,Rainwise IP-100,2013-02-23 21:30:00,
2013-02-23 15:35:00,53.0,32.0,29.87,West,270,3.0,7.0,44,0.00,,,0.00,Rainwise IP-100,2013-02-23 21:35:00,
2013-02-23 15:40:00,53.0,32.0,29.87,West,270,1.0,7.0,45,0.00,,,0.00,Rainwise IP-100,2013-02-23 21:40:00,
2013-02-23 15:45:00,53.0,32.0,29.87,WNW,292,3.0,8.0,44,0.00,,,0.00,Rainwise IP-100,2013-02-23 21:45:00,
2013-02-23 15:50:00,54.0,32.0,29.87,North,360,7.0,7.0,44,0.00,,,0.00,Rainwise IP-100,2013-02-23 21:50:00,
2013-02-23 15:55:00,54.0,32.0,29.87,NW,315,5.0,9.0,44,0.00,,,0.00,Rainwise IP-100,2013-02-23 21:55:00,
2013-02-23 16:00:00,54.0,32.0,29.87,NW,315,7.0,7.0,44,0.00,,,0.00,Rainwise IP-100,2013-02-23 22:00:00,
2013-02-23 16:05:00,54.0,32.0,29.87,NW,315,0.0,7.0,44,0.00,,,0.00,Rainwise IP-100,2013-02-23 22:05:00,
2013-02-23 16:10:00,54.0,32.0,29.85,NW,315,1.0,7.0,42,0.00,,,0.00,Rainwise IP-100,2013-02-23 22:10:00,
2013-02-23 16:15:00,55.0,32.0,29.85,North,360,5.0,8.0,41,0.00,,,0.00,Rainwise IP-100,2013-02-23 22:15:00,
2013-02-23 16:20:00,54.0,32.0,29.86,WSW,247,7.0,9.0,44,0.00,,,0.00,Rainwise IP-100,2013-02-23 22:20:00,
2013-02-23 16:25:00,53.0,32.0,29.86,West,270,2.0,10.0,45,0.00,,,0.00,Rainwise IP-100,2013-02-23 22:25:00,
2013-02-23 16:30:00,53.0,31.0,29.86,NW,315,5.0,8.0,43,0.00,,,0.00,Rainwise IP-100,2013-02-23 22:30:00,
2013-02-23 16:35:00,53.0,32.0,29.86,WNW,292,4.0,9.0,44,0.00,,,0.00,Rainwise IP-100,2013-02-23 22:35:00,
2013-02-23 16:40:00,53.0,32.0,29.86,NW,315,2.0,6.0,44,0.00,,,0.00,Rainwise IP-100,2013-02-23 22:40:00,
2013-02-23 16:45:00,53.0,32.0,29.86,NW,315,2.0,6.0,45,0.00,,,0.00,Rainwise IP-100,2013-02-23 22:45:00,
2013-02-23 16:50:00,53.0,32.0,29.85,NW,315,4.0,5.0,45,0.00,,,0.00,Rainwise IP-100,2013-02-23 22:50:00,
2013-02-23 16:55:00,52.0,33.0,29.85,North,360,5.0,9.0,48,0.00,,,0.00,Rainwise IP-100,2013-02-23 22:55:00,
2013-02-23 17:00:00,51.0,33.0,29.85,North,360,7.0,10.0,49,0.00,,,0.00,Rainwise IP-100,2013-02-23 23:00:00,
2013-02-23 17:05:00,50.0,32.0,29.85,NW,315,6.0,7.0,50,0.00,,,0.00,Rainwise IP-100,2013-02-23 23:05:00,
2013-02-23 17:10:00,50.0,33.0,29.86,NNW,337,8.0,8.0,52,0.00,,,0.00,Rainwise IP-100,2013-02-23 23:10:00,
2013-02-23 17:15:00,49.0,32.0,29.86,North,360,5.0,8.0,52,0.00,,,0.00,Rainwise IP-100,2013-02-23 23:15:00,
2013-02-23 17:20:00,49.0,33.0,29.87,NW,315,4.0,6.0,53,0.00,,,0.00,Rainwise IP-100,2013-02-23 23:20:00,
2013-02-23 17:25:00,49.0,33.0,29.87,NNW,337,3.0,9.0,53,0.00,,,0.00,Rainwise IP-100,2013-02-23 23:25:00,
2013-02-23 17:30:00,49.0,33.0,29.87,NW,315,4.0,9.0,54,0.00,,,0.00,Rainwise IP-100,2013-02-23 23:30:00,
2013-02-23 17:35:00,48.0,32.0,29.87,NW,315,6.0,9.0,54,0.00,,,0.00,Rainwise IP-100,2013-02-23 23:35:00,
2013-02-23 17:40:00,48.0,32.0,29.87,North,360,7.0,9.0,53,0.00,,,0.00,Rainwise IP-100,2013-02-23 23:40:00,
2013-02-23 17:45:00,48.0,32.0,29.87,WNW,292,6.0,12.0,53,0.00,,,0.00,Rainwise IP-100,2013-02-23 23:45:00,
2013-02-23 17:50:00,47.0,31.0,29.88,West,270,5.0,11.0,54,0.00,,,0.00,Rainwise IP-100,2013-02-23 23:50:00,
2013-02-23 17:55:00,47.0,31.0,29.88,NW,315,4.0,8.0,54,0.00,,,0.00,Rainwise IP-100,2013-02-23 23:55:00,
2013-02-23 18:00:00,47.0,32.0,29.89,NW,315,6.0,11.0,55,0.00,,,0.00,Rainwise IP-100,2013-02-24 00:00:00,
2013-02-23 18:05:00,47.0,31.0,29.89,NW,315,4.0,10.0,54,0.00,,,0.00,Rainwise IP-100,2013-02-24 00:05:00,
2013-02-23 18:10:00,46.0,31.0,29.89,NW,315,6.0,10.0,54,0.00,,,0.00,Rainwise IP-100,2013-02-24 00:10:00,
2013-02-23 18:15:00,46.0,31.0,29.89,WNW,292,4.0,10.0,55,0.00,,,0.00,Rainwise IP-100,2013-02-24 00:15:00,
2013-02-23 18:20:00,46.0,31.0,29.90,NNW,337,6.0,10.0,55,0.00,,,0.00,Rainwise IP-100,2013-02-24 00:20:00,
2013-02-23 18:25:00,46.0,31.0,29.90,NW,315,4.0,9.0,55,0.00,,,0.00,Rainwise IP-100,2013-02-24 00:25:00,
2013-02-23 18:30:00,45.0,29.0,29.90,NNW,337,7.0,9.0,54,0.00,,,0.00,Rainwise IP-100,2013-02-24 00:30:00,
2013-02-23 18:35:00,45.0,31.0,29.90,NNW,337,6.0,11.0,55,0.00,,,0.00,Rainwise IP-100,2013-02-24 00:35:00,
2013-02-23 18:40:00,45.0,31.0,29.90,NW,315,5.0,9.0,56,0.00,,,0.00,Rainwise IP-100,2013-02-24 00:40:00,
2013-02-23 18:45:00,45.0,31.0,29.90,NW,315,4.0,7.0,58,0.00,,,0.00,Rainwise IP-100,2013-02-24 00:45:00,
2013-02-23 18:50:00,44.0,31.0,29.91,NNW,337,5.0,7.0,58,0.00,,,0.00,Rainwise IP-100,2013-02-24 00:50:00,
2013-02-23 18:55:00,44.0,31.0,29.91,NNW,337,4.0,7.0,60,0.00,,,0.00,Rainwise IP-100,2013-02-24 00:55:00,
2013-02-23 19:00:00,43.0,31.0,29.91,NNW,337,4.0,7.0,59,0.00,,,0.00,Rainwise IP-100,2013-02-24 01:00:00,
2013-02-23 19:05:00,43.0,31.0,29.91,NNW,337,4.0,8.0,60,0.00,,,0.00,Rainwise IP-100,2013-02-24 01:05:00,
2013-02-23 19:10:00,43.0,31.0,29.92,NNW,337,5.0,8.0,59,0.00,,,0.00,Rainwise IP-100,2013-02-24 01:10:00,
2013-02-23 19:15:00,43.0,31.0,29.92,NNW,337,5.0,10.0,60,0.00,,,0.00,Rainwise IP-100,2013-02-24 01:15:00,
2013-02-23 19:20:00,42.0,29.0,29.92,North,360,4.0,6.0,61,0.00,,,0.00,Rainwise IP-100,2013-02-24 01:20:00,
2013-02-23 19:25:00,42.0,31.0,29.92,North,360,3.0,7.0,62,0.00,,,0.00,Rainwise IP-100,2013-02-24 01:25:00,
2013-02-23 19:30:00,42.0,31.0,29.93,North,360,6.0,6.0,62,0.00,,,0.00,Rainwise IP-100,2013-02-24 01:30:00,
2013-02-23 19:35:00,42.0,31.0,29.93,North,360,4.0,7.0,63,0.00,,,0.00,Rainwise IP-100,2013-02-24 01:35:00,
2013-02-23 19:40:00,42.0,31.0,29.92,NNW,337,5.0,7.0,63,0.00,,,0.00,Rainwise IP-100,2013-02-24 01:40:00,
2013-02-23 19:45:00,42.0,31.0,29.92,NNW,337,3.0,7.0,64,0.00,,,0.00,Rainwise IP-100,2013-02-24 01:45:00,
2013-02-23 19:50:00,41.0,31.0,29.92,NNW,337,3.0,5.0,65,0.00,,,0.00,Rainwise IP-100,2013-02-24 01:50:00,
2013-02-23 19:55:00,41.0,32.0,29.92,NNW,337,1.0,4.0,68,0.00,,,0.00,Rainwise IP-100,2013-02-24 01:55:00,
2013-02-23 20:00:00,40.0,32.0,29.93,NW,315,3.0,4.0,70,0.00,,,0.00,Rainwise IP-100,2013-02-24 02:00:00,
2013-02-23 20:05:00,41.0,31.0,29.93,NW,315,5.0,6.0,67,0.00,,,0.00,Rainwise IP-100,2013-02-24 02:05:00,
2013-02-23 20:10:00,41.0,31.0,29.94,NW,315,6.0,9.0,64,0.00,,,0.00,Rainwise IP-100,2013-02-24 02:10:00,
2013-02-23 20:15:00,42.0,32.0,29.94,NNW,337,5.0,8.0,65,0.00,,,0.00,Rainwise IP-100,2013-02-24 02:15:00,
2013-02-23 20:20:00,42.0,31.0,29.93,NW,315,7.0,9.0,64,0.00,,,0.00,Rainwise IP-100,2013-02-24 02:20:00,
2013-02-23 20:25:00,42.0,32.0,29.93,NW,315,7.0,8.0,65,0.00,,,0.00,Rainwise IP-100,2013-02-24 02:25:00,
2013-02-23 20:30:00,41.0,31.0,29.93,NW,315,6.0,7.0,65,0.00,,,0.00,Rainwise IP-100,2013-02-24 02:30:00,
2013-02-23 20:35:00,41.0,31.0,29.93,North,360,7.0,9.0,65,0.00,,,0.00,Rainwise IP-100,2013-02-24 02:35:00,
2013-02-23 20:40:00,41.0,31.0,29.94,NNW,337,4.0,8.0,65,0.00,,,0.00,Rainwise IP-100,2013-02-24 02:40:00,
2013-02-23 20:45:00,41.0,31.0,29.94,North,360,3.0,8.0,66,0.00,,,0.00,Rainwise IP-100,2013-02-24 02:45:00,
2013-02-23 20:50:00,40.0,31.0,29.94,NW,315,3.0,6.0,68,0.00,,,0.00,Rainwise IP-100,2013-02-24 02:50:00,
2013-02-23 20:55:00,40.0,31.0,29.94,NNW,337,3.0,6.0,68,0.00,,,0.00,Rainwise IP-100,2013-02-24 02:55:00,
2013-02-23 21:00:00,40.0,31.0,29.93,NNW,337,4.0,5.0,68,0.00,,,0.00,Rainwise IP-100,2013-02-24 03:00:00,
2013-02-23 21:05:00,39.0,31.0,29.93,NNW,337,5.0,6.0,69,0.00,,,0.00,Rainwise IP-100,2013-02-24 03:05:00,
2013-02-23 21:11:00,40.0,32.0,29.94,NNW,337,2.0,7.0,70,0.00,,,0.00,Rainwise IP-100,2013-02-24 03:11:00,
2013-02-23 21:16:00,39.0,31.0,29.94,WNW,292,0.0,6.0,69,0.00,,,0.00,Rainwise IP-100,2013-02-24 03:16:00,
2013-02-23 21:21:00,39.0,29.0,29.94,North,360,2.0,7.0,67,0.00,,,0.00,Rainwise IP-100,2013-02-24 03:21:00,
2013-02-23 21:26:00,39.0,31.0,29.94,NW,315,2.0,6.0,69,0.00,,,0.00,Rainwise IP-100,2013-02-24 03:26:00,
2013-02-23 21:31:00,39.0,32.0,29.95,WNW,292,1.0,5.0,73,0.00,,,0.00,Rainwise IP-100,2013-02-24 03:31:00,
2013-02-23 21:36:00,39.0,31.0,29.95,NNW,337,4.0,6.0,69,0.00,,,0.00,Rainwise IP-100,2013-02-24 03:36:00,
2013-02-23 21:41:00,39.0,29.0,29.95,NW,315,7.0,7.0,66,0.00,,,0.00,Rainwise IP-100,2013-02-24 03:41:00,
2013-02-23 21:46:00,40.0,29.0,29.95,NW,315,6.0,8.0,65,0.00,,,0.00,Rainwise IP-100,2013-02-24 03:46:00,
2013-02-23 21:51:00,40.0,31.0,29.94,NW,315,5.0,9.0,66,0.00,,,0.00,Rainwise IP-100,2013-02-24 03:51:00,
2013-02-23 21:56:00,39.0,29.0,29.94,NNW,337,6.0,9.0,66,0.00,,,0.00,Rainwise IP-100,2013-02-24 03:56:00,
2013-02-23 22:01:00,39.0,29.0,29.94,NW,315,3.0,8.0,67,0.00,,,0.00,Rainwise IP-100,2013-02-24 04:01:00,
2013-02-23 22:06:00,39.0,29.0,29.94,North,360,5.0,6.0,66,0.00,,,0.00,Rainwise IP-100,2013-02-24 04:06:00,
2013-02-23 22:11:00,39.0,29.0,29.94,NNW,337,7.0,7.0,67,0.00,,,0.00,Rainwise IP-100,2013-02-24 04:11:00,
2013-02-23 22:16:00,39.0,31.0,29.94,North,360,5.0,7.0,69,0.00,,,0.00,Rainwise IP-100,2013-02-24 04:16:00,
2013-02-23 22:21:00,38.0,29.0,29.94,NW,315,5.0,7.0,68,0.00,,,0.00,Rainwise IP-100,2013-02-24 04:21:00,
2013-02-23 22:26:00,38.0,29.0,29.94,NNW,337,3.0,7.0,69,0.00,,,0.00,Rainwise IP-100,2013-02-24 04:26:00,
2013-02-23 22:31:00,38.0,29.0,29.95,NW,315,4.0,7.0,68,0.00,,,0.00,Rainwise IP-100,2013-02-24 04:31:00,
2013-02-23 22:36:00,38.0,29.0,29.95,NW,315,2.0,6.0,69,0.00,,,0.00,Rainwise IP-100,2013-02-24 04:36:00,
2013-02-23 22:41:00,38.0,29.0,29.95,NW,315,3.0,5.0,70,0.00,,,0.00,Rainwise IP-100,2013-02-24 04:41:00,
2013-02-23 22:46:00,38.0,29.0,29.95,NNW,337,2.0,6.0,71,0.00,,,0.00,Rainwise IP-100,2013-02-24 04:46:00,
2013-02-23 22:51:00,37.0,29.0,29.95,NNW,337,2.0,6.0,73,0.00,,,0.00,Rainwise IP-100,2013-02-24 04:51:00,
2013-02-23 22:56:00,37.0,29.0,29.95,NW,315,3.0,6.0,73,0.00,,,0.00,Rainwise IP-100,2013-02-24 04:56:00,
2013-02-23 23:00:00,37.0,29.0,29.96,NW,315,2.0,6.0,73,0.00,,,0.00,Rainwise IP-100,2013-02-24 05:00:00,
2013-02-23 23:05:00,37.0,29.0,29.96,WNW,292,6.0,6.0,73,0.00,,,0.00,Rainwise IP-100,2013-02-24 05:05:00,
2013-02-23 23:10:00,37.0,31.0,29.97,NW,315,4.0,6.0,75,0.00,,,0.00,Rainwise IP-100,2013-02-24 05:10:00,
2013-02-23 23:15:00,37.0,31.0,29.97,NW,315,3.0,6.0,75,0.00,,,0.00,Rainwise IP-100,2013-02-24 05:15:00,
2013-02-23 23:20:00,36.0,29.0,29.96,NNW,337,3.0,6.0,75,0.00,,,0.00,Rainwise IP-100,2013-02-24 05:20:00,
2013-02-23 23:25:00,36.0,29.0,29.96,NNW,337,5.0,6.0,74,0.00,,,0.00,Rainwise IP-100,2013-02-24 05:25:00,
2013-02-23 23:30:00,36.0,29.0,29.96,North,360,3.0,6.0,74,0.00,,,0.00,Rainwise IP-100,2013-02-24 05:30:00,
2013-02-23 23:35:00,36.0,29.0,29.96,North,360,0.0,5.0,76,0.00,,,0.00,Rainwise IP-100,2013-02-24 05:35:00,
2013-02-23 23:40:00,36.0,29.0,29.97,North,360,2.0,3.0,77,0.00,,,0.00,Rainwise IP-100,2013-02-24 05:40:00,
2013-02-23 23:45:00,36.0,29.0,29.97,North,360,3.0,6.0,77,0.00,,,0.00,Rainwise IP-100,2013-02-24 05:45:00,
2013-02-23 23:50:00,36.0,29.0,29.96,NNW,337,5.0,6.0,76,0.00,,,0.00,Rainwise IP-100,2013-02-24 05:50:00,
2013-02-23 23:55:00,36.0,29.0,29.96,NNW,337,4.0,7.0,76,0.00,,,0.00,Rainwise IP-100,2013-02-24 05:55:00,